Location: Quedlinburg
(51.7921°N, 11.1414°E)
Time: 13:53:48
(UTC+02:00)

RS-15 - Pass Details

Date: 18 March 2026
Orbit: 1893 x 2152 km, 64.8° (Epoch: 22 April)

Event Time Altitude Azimuth Distance (km) Brightness Sun altitude
Rises 02:09:08 0° 304° (NW) 5,342 10.4 -34.6°
Reaches altitude 10° 02:12:32 10° 310° (NW) 4,368 9.9 -34.3°
Maximum altitude 02:23:34 54° 27° (NNE) 2,360 8.6 -33.3°
Drops below altitude 10° 02:35:06 10° 103° (ESE) 4,564 10.2 -32.2°
Sets 02:38:44 0° 108° (ESE) 5,594 10.7 -31.9°
